Estación de El Tambo INIA

Ultimos registro cada 15 minutos 63
Estación Fecha / Hora Temperatura Humedad Lluvia Velocidad Dirección Radiación Presion
63 El Tambo INIA 07-05-2026 15:30 14,9 62,1 0 3,4 122 371 994
62 El Tambo INIA 07-05-2026 15:15 15 63,9 0 3,6 113 399 994
61 El Tambo INIA 07-05-2026 15:00 15,3 63,2 0 3,2 121 431 995
60 El Tambo INIA 07-05-2026 14:45 15,2 63,5 0 3 116 456 994
59 El Tambo INIA 07-05-2026 14:30 15,1 63,4 0 3 128 481 994
58 El Tambo INIA 07-05-2026 14:15 15,4 63,2 0 2,4 114 498 995
57 El Tambo INIA 07-05-2026 14:00 14,9 61,6 0 2,3 103 517 995
56 El Tambo INIA 07-05-2026 13:45 14,4 68,4 0 3,2 82 531 995
55 El Tambo INIA 07-05-2026 13:30 14,2 72,1 0 3,3 92 538 995
54 El Tambo INIA 07-05-2026 13:15 14,1 68,5 0 3,2 101 545 995
53 El Tambo INIA 07-05-2026 13:00 13,8 68,9 0 3,2 106 549 996
52 El Tambo INIA 07-05-2026 12:45 13,6 70,6 0 3,1 106 549 996
51 El Tambo INIA 07-05-2026 12:30 13,2 72,1 0 3,5 97 525 996
50 El Tambo INIA 07-05-2026 12:15 12,8 74,2 0 3,7 97 428 996
49 El Tambo INIA 07-05-2026 12:00 13,1 74,1 0 3,4 103 463 996
48 El Tambo INIA 07-05-2026 11:45 13,2 75,6 0 3,4 79 493 996
47 El Tambo INIA 07-05-2026 11:30 13 74,1 0 2,7 92 568 996
46 El Tambo INIA 07-05-2026 11:15 12,7 76,1 0 2,6 93 483 996
45 El Tambo INIA 07-05-2026 11:00 12,3 77,8 0 2,6 101 470 996
44 El Tambo INIA 07-05-2026 10:45 12,2 76,8 0 2,4 102 426 996
43 El Tambo INIA 07-05-2026 10:30 12 77,5 0 2,2 110 410 996
42 El Tambo INIA 07-05-2026 10:15 11,8 78,1 0 2,3 103 374 996
41 El Tambo INIA 07-05-2026 10:00 11,8 77,9 0 2,6 104 341 996
40 El Tambo INIA 07-05-2026 09:45 11,9 78,3 0 1,4 111 300 996
39 El Tambo INIA 07-05-2026 09:30 11,4 81,3 0 1,8 111 256 996
38 El Tambo INIA 07-05-2026 09:15 11 85,1 0 1,8 108 222 996
37 El Tambo INIA 07-05-2026 09:00 11,1 85,6 0 1,3 111 195 996
36 El Tambo INIA 07-05-2026 08:45 10,3 87,2 0 0 118 166 996
35 El Tambo INIA 07-05-2026 08:30 9,5 95,5 0 0,1 112 50 996
34 El Tambo INIA 07-05-2026 08:15 9,1 98,1 0 0 318 24 995
33 El Tambo INIA 07-05-2026 08:00 8,9 97,9 0 0 0 12 995
32 El Tambo INIA 07-05-2026 07:45 8,7 98 0 0,4 126 5 995
31 El Tambo INIA 07-05-2026 07:30 8,8 94,2 0 0,7 68 2 995
30 El Tambo INIA 07-05-2026 07:15 9 97 0 0,1 72 0 995
29 El Tambo INIA 07-05-2026 07:00 9,4 95,8 0 0 256 0 995
28 El Tambo INIA 07-05-2026 06:45 9,5 95 0 0,4 146 0 995
27 El Tambo INIA 07-05-2026 06:30 9,4 93,3 0 0,3 135 0 995
26 El Tambo INIA 07-05-2026 06:15 9,7 94,4 0 0,2 89 0 995
25 El Tambo INIA 07-05-2026 06:00 10 95,7 0 0 0 0 994
24 El Tambo INIA 07-05-2026 05:45 10,1 95,7 0 0 247 0 994
23 El Tambo INIA 07-05-2026 05:30 10,1 95,8 0 0,1 176 0 994
22 El Tambo INIA 07-05-2026 05:15 10,1 95,7 0 0,6 157 0 994
21 El Tambo INIA 07-05-2026 05:00 10,1 90,3 0 1 90 0 994
20 El Tambo INIA 07-05-2026 04:45 10,2 92 0 0,5 117 0 993
19 El Tambo INIA 07-05-2026 04:30 10,4 93,1 0 0 266 0 994
18 El Tambo INIA 07-05-2026 04:15 10,4 90,7 0 0,3 98 0 993
17 El Tambo INIA 07-05-2026 04:00 10,4 95,1 0 0,4 216 0 993
16 El Tambo INIA 07-05-2026 03:45 10,4 96,4 0 0,3 131 0 993
15 El Tambo INIA 07-05-2026 03:30 10,4 96,3 0 0,4 184 0 993
14 El Tambo INIA 07-05-2026 03:15 10,4 96,9 0 0,4 198 0 993
13 El Tambo INIA 07-05-2026 03:00 10,6 96,7 0 0,7 178 0 993
12 El Tambo INIA 07-05-2026 02:45 10,7 96 0 0,7 103 0 993
11 El Tambo INIA 07-05-2026 02:30 10,7 95 0 0,9 94 0 993
10 El Tambo INIA 07-05-2026 02:15 10,8 94,7 0 1 59 0 993
9 El Tambo INIA 07-05-2026 02:00 10,8 95,2 0 0,7 331 0 993
8 El Tambo INIA 07-05-2026 01:45 10,9 95,6 0 0 299 0 993
7 El Tambo INIA 07-05-2026 01:30 10,9 96,3 0 0 140 0 993
6 El Tambo INIA 07-05-2026 01:15 10,9 95,8 0 0 314 0 993
5 El Tambo INIA 07-05-2026 01:00 10,9 95,2 0 0 354 0 993
4 El Tambo INIA 07-05-2026 00:45 10,9 96,2 0 0,1 304 0 993
3 El Tambo INIA 07-05-2026 00:30 10,9 96,4 0 0 344 0 993
2 El Tambo INIA 07-05-2026 00:15 10,9 95,8 0,1 0 308 0 993
1 El Tambo INIA 07-05-2026 00:00 10,9 95 0 0,3 251 0 992